Tracking 18843 objects as of 21-November-2017
HD Live streaming from Space Station
objects crossing your sky now

FENGYUN 1C DEB

Track FENGYUN 1C DEB now!
10-day predictions


NORAD ID: 29925
Int'l Code: 1999-025HX
Perigee: 621.2 km
Apogee: 722.7 km
Inclination: 99.0 °
Period: 98.0 minutes
Semi major axis: 7042 km
RCS: 0.0224 m2 (small)
Launch date: May 10, 1999
Source: People's Republic of China (PRC)
Launch site: Taiyaun Space Center, China (TSC)

Note: This is SATELLITE DEBRIS
aabbcc
Your satellite tracking list
Your tracking list is empty




NASA's NSSDC Master Catalog

Two Line Element Set (TLE):
1 29925U 99025HX  17324.86600965  .00004296  00000-0  71730-3 0  9991
2 29925  99.0182 274.9066 0072056  30.4379  30.7682 14.68819750573446
Source of the keplerian elements: AFSPC